Time,TemperatureF,DewpointF,PressureIn,WindDirection,WindDirectionDegrees,WindSpeedMPH,WindSpeedGustMPH,Humidity,HourlyPrecipIn,Conditions,Clouds,dailyrainin,SoftwareType,DateUTC
2013-01-07 00:00:00,42.3,25.5,27.34,SW,225,0.0,0.2,51,0.00,,,0.00,WUHU216HW,2013-01-07 07:00:00,
2013-01-07 00:05:00,42.1,25.3,27.34,NNW,338,0.0,0.0,51,0.00,,,0.00,WUHU216HW,2013-01-07 07:05:00,
2013-01-07 00:10:00,42.1,25.3,27.34,North,0,0.2,0.4,51,0.00,,,0.00,WUHU216HW,2013-01-07 07:10:00,
2013-01-07 00:15:00,41.9,25.1,27.33,North,0,0.2,0.7,51,0.00,,,0.00,WUHU216HW,2013-01-07 07:15:00,
2013-01-07 00:20:00,41.8,24.9,27.33,North,0,0.0,0.7,51,0.00,,,0.00,WUHU216HW,2013-01-07 07:20:00,
2013-01-07 00:25:00,41.6,25.2,27.33,NNE,23,0.0,0.4,52,0.00,,,0.00,WUHU216HW,2013-01-07 07:25:00,
2013-01-07 00:30:00,41.6,25.2,27.33,NE,45,0.0,0.4,52,0.00,,,0.00,WUHU216HW,2013-01-07 07:30:00,
2013-01-07 00:35:00,41.4,25.0,27.33,SE,135,0.2,0.2,52,0.00,,,0.00,WUHU216HW,2013-01-07 07:35:00,
2013-01-07 00:40:00,40.7,24.8,27.33,ESE,113,0.0,0.4,53,0.00,,,0.00,WUHU216HW,2013-01-07 07:40:00,
2013-01-07 00:45:00,40.5,25.0,27.33,ESE,113,0.0,0.4,54,0.00,,,0.00,WUHU216HW,2013-01-07 07:45:00,
2013-01-07 00:50:00,40.1,24.8,27.32,ENE,68,0.0,0.0,54,0.00,,,0.00,WUHU216HW,2013-01-07 07:50:00,
2013-01-07 00:55:00,40.0,25.0,27.32,ENE,68,0.0,0.0,55,0.00,,,0.00,WUHU216HW,2013-01-07 07:55:00,
2013-01-07 01:00:00,39.8,24.9,27.32,NE,45,0.0,0.2,55,0.00,,,0.00,WUHU216HW,2013-01-07 08:00:00,
2013-01-07 01:05:00,40.0,25.0,27.32,ENE,68,0.0,0.2,55,0.00,,,0.00,WUHU216HW,2013-01-07 08:05:00,
2013-01-07 01:10:00,40.0,25.0,27.32,North,0,0.0,0.0,55,0.00,,,0.00,WUHU216HW,2013-01-07 08:10:00,
2013-01-07 01:15:00,40.1,25.1,27.32,NNE,23,0.0,0.0,55,0.00,,,0.00,WUHU216HW,2013-01-07 08:15:00,
2013-01-07 01:20:00,40.0,25.0,27.32,NE,45,0.0,0.2,55,0.00,,,0.00,WUHU216HW,2013-01-07 08:20:00,
2013-01-07 01:25:00,40.0,25.0,27.31,ESE,113,0.0,0.2,55,0.00,,,0.00,WUHU216HW,2013-01-07 08:25:00,
2013-01-07 01:30:00,40.0,25.0,27.31,SE,135,0.0,0.9,55,0.00,,,0.00,WUHU216HW,2013-01-07 08:30:00,
2013-01-07 01:35:00,40.0,25.0,27.31,ENE,68,0.0,0.9,55,0.00,,,0.00,WUHU216HW,2013-01-07 08:35:00,
2013-01-07 01:40:00,39.8,25.3,27.31,NE,45,0.0,0.2,56,0.00,,,0.00,WUHU216HW,2013-01-07 08:40:00,
2013-01-07 01:45:00,39.8,25.3,27.31,NNW,338,0.0,0.0,56,0.00,,,0.00,WUHU216HW,2013-01-07 08:45:00,
2013-01-07 01:50:00,39.6,25.1,27.31,NNW,338,0.0,0.0,56,0.00,,,0.00,WUHU216HW,2013-01-07 08:50:00,
2013-01-07 01:55:00,39.6,25.1,27.32,WNW,293,0.0,0.0,56,0.00,,,0.00,WUHU216HW,2013-01-07 08:55:00,
2013-01-07 02:00:00,39.4,24.9,27.32,NNW,338,0.0,0.0,56,0.00,,,0.00,WUHU216HW,2013-01-07 09:00:00,
2013-01-07 02:05:00,39.4,25.4,27.32,North,0,0.0,0.0,57,0.00,,,0.00,WUHU216HW,2013-01-07 09:05:00,
2013-01-07 02:10:00,39.2,25.2,27.32,North,0,0.0,0.0,57,0.00,,,0.00,WUHU216HW,2013-01-07 09:10:00,
2013-01-07 02:15:00,39.2,25.2,27.32,North,0,0.0,0.0,57,0.00,,,0.00,WUHU216HW,2013-01-07 09:15:00,
2013-01-07 02:20:00,39.1,25.0,27.32,NNE,23,0.0,0.0,57,0.00,,,0.00,WUHU216HW,2013-01-07 09:20:00,
2013-01-07 02:25:00,38.9,24.8,27.32,NNE,23,0.0,0.0,57,0.00,,,0.00,WUHU216HW,2013-01-07 09:25:00,
2013-01-07 02:30:00,38.7,25.1,27.31,East,90,0.0,0.0,58,0.00,,,0.00,WUHU216HW,2013-01-07 09:30:00,
2013-01-07 02:35:00,38.2,24.7,27.31,East,90,0.0,0.0,58,0.00,,,0.00,WUHU216HW,2013-01-07 09:35:00,
2013-01-07 02:40:00,37.8,24.8,27.30,ENE,68,0.0,0.0,59,0.00,,,0.00,WUHU216HW,2013-01-07 09:40:00,
2013-01-07 02:45:00,37.4,24.4,27.31,ESE,113,0.0,0.4,59,0.00,,,0.00,WUHU216HW,2013-01-07 09:45:00,
2013-01-07 02:50:00,37.4,24.8,27.31,NE,45,0.2,0.4,60,0.00,,,0.00,WUHU216HW,2013-01-07 09:50:00,
2013-01-07 02:55:00,37.4,24.8,27.31,South,180,0.0,0.4,60,0.00,,,0.00,WUHU216HW,2013-01-07 09:55:00,
2013-01-07 03:00:00,37.6,25.0,27.31,NNW,338,0.0,0.4,60,0.00,,,0.00,WUHU216HW,2013-01-07 10:00:00,
2013-01-07 03:05:00,37.6,25.0,27.31,NNE,23,0.0,0.0,60,0.00,,,0.00,WUHU216HW,2013-01-07 10:05:00,
2013-01-07 03:10:00,37.6,25.0,27.31,ESE,113,0.0,0.0,60,0.00,,,0.00,WUHU216HW,2013-01-07 10:10:00,
2013-01-07 03:15:00,37.8,25.2,27.31,NE,45,0.0,0.0,60,0.00,,,0.00,WUHU216HW,2013-01-07 10:15:00,
2013-01-07 03:20:00,37.8,25.2,27.30,NNW,338,0.0,0.0,60,0.00,,,0.00,WUHU216HW,2013-01-07 10:20:00,
2013-01-07 03:25:00,37.8,25.6,27.31,WNW,293,0.0,0.0,61,0.00,,,0.00,WUHU216HW,2013-01-07 10:25:00,
2013-01-07 03:30:00,37.6,25.4,27.30,NW,315,0.0,0.0,61,0.00,,,0.00,WUHU216HW,2013-01-07 10:30:00,
2013-01-07 03:35:00,37.4,24.8,27.31,NNW,338,0.0,0.0,60,0.00,,,0.00,WUHU216HW,2013-01-07 10:35:00,
2013-01-07 03:40:00,37.4,24.8,27.31,North,0,0.0,0.0,60,0.00,,,0.00,WUHU216HW,2013-01-07 10:40:00,
2013-01-07 03:45:00,37.4,24.8,27.30,NNE,23,0.0,0.0,60,0.00,,,0.00,WUHU216HW,2013-01-07 10:45:00,
2013-01-07 03:50:00,37.4,25.2,27.31,SSW,203,0.0,0.0,61,0.00,,,0.00,WUHU216HW,2013-01-07 10:50:00,
2013-01-07 03:55:00,37.6,25.4,27.31,SW,225,0.0,0.0,61,0.00,,,0.00,WUHU216HW,2013-01-07 10:55:00,
2013-01-07 04:00:00,37.6,25.4,27.31,East,90,0.0,0.0,61,0.00,,,0.00,WUHU216HW,2013-01-07 11:00:00,
2013-01-07 04:05:00,37.6,25.4,27.30,ESE,113,0.0,0.0,61,0.00,,,0.00,WUHU216HW,2013-01-07 11:05:00,
2013-01-07 04:10:00,37.4,25.2,27.30,ENE,68,0.0,0.0,61,0.00,,,0.00,WUHU216HW,2013-01-07 11:10:00,
2013-01-07 04:15:00,37.3,25.5,27.30,NNE,23,0.0,0.0,62,0.00,,,0.00,WUHU216HW,2013-01-07 11:15:00,
2013-01-07 04:20:00,37.3,25.5,27.30,NNW,338,0.0,0.0,62,0.00,,,0.00,WUHU216HW,2013-01-07 11:20:00,
2013-01-07 04:25:00,37.3,25.5,27.30,NNW,338,0.0,0.0,62,0.00,,,0.00,WUHU216HW,2013-01-07 11:25:00,
2013-01-07 04:30:00,37.3,25.5,27.30,NNE,23,0.0,0.0,62,0.00,,,0.00,WUHU216HW,2013-01-07 11:30:00,
2013-01-07 04:35:00,37.4,25.6,27.30,ESE,113,0.0,0.0,62,0.00,,,0.00,WUHU216HW,2013-01-07 11:35:00,
2013-01-07 04:40:00,37.3,25.5,27.30,ESE,113,0.0,0.0,62,0.00,,,0.00,WUHU216HW,2013-01-07 11:40:00,
2013-01-07 04:45:00,37.1,25.7,27.30,ENE,68,0.4,0.4,63,0.00,,,0.00,WUHU216HW,2013-01-07 11:45:00,
2013-01-07 04:50:00,36.9,25.5,27.30,NE,45,0.0,0.4,63,0.00,,,0.00,WUHU216HW,2013-01-07 11:50:00,
2013-01-07 04:55:00,36.9,25.5,27.30,NW,315,0.0,0.4,63,0.00,,,0.00,WUHU216HW,2013-01-07 11:55:00,
2013-01-07 05:00:00,36.9,25.5,27.30,ENE,68,0.0,0.4,63,0.00,,,0.00,WUHU216HW,2013-01-07 12:00:00,
2013-01-07 05:05:00,36.9,25.5,27.29,East,90,0.0,0.4,63,0.00,,,0.00,WUHU216HW,2013-01-07 12:05:00,
2013-01-07 05:10:00,36.9,25.5,27.30,ESE,113,0.0,0.0,63,0.00,,,0.00,WUHU216HW,2013-01-07 12:10:00,
2013-01-07 05:15:00,37.1,25.7,27.29,ENE,68,0.0,0.0,63,0.00,,,0.00,WUHU216HW,2013-01-07 12:15:00,
2013-01-07 05:20:00,37.1,25.7,27.29,NE,45,0.0,0.0,63,0.00,,,0.00,WUHU216HW,2013-01-07 12:20:00,
2013-01-07 05:25:00,36.9,25.5,27.29,NE,45,0.0,0.0,63,0.00,,,0.00,WUHU216HW,2013-01-07 12:25:00,
2013-01-07 05:30:00,36.7,25.3,27.29,WNW,293,0.0,0.0,63,0.00,,,0.00,WUHU216HW,2013-01-07 12:30:00,
2013-01-07 05:35:00,36.5,25.1,27.30,NNW,338,0.0,0.0,63,0.00,,,0.00,WUHU216HW,2013-01-07 12:35:00,
2013-01-07 05:40:00,36.4,24.9,27.29,NW,315,0.4,0.4,63,0.00,,,0.00,WUHU216HW,2013-01-07 12:40:00,
2013-01-07 05:45:00,36.4,24.9,27.29,NNW,338,0.0,0.4,63,0.00,,,0.00,WUHU216HW,2013-01-07 12:45:00,
2013-01-07 05:50:00,36.4,24.9,27.29,NNW,338,0.0,0.4,63,0.00,,,0.00,WUHU216HW,2013-01-07 12:50:00,
2013-01-07 05:55:00,36.4,25.4,27.29,ESE,113,0.0,0.4,64,0.00,,,0.00,WUHU216HW,2013-01-07 12:55:00,
2013-01-07 06:00:00,36.0,25.0,27.29,ENE,68,0.0,0.4,64,0.00,,,0.00,WUHU216HW,2013-01-07 13:00:00,
2013-01-07 06:05:00,35.8,24.9,27.29,SW,225,0.0,0.4,64,0.00,,,0.00,WUHU216HW,2013-01-07 13:05:00,
2013-01-07 06:10:00,35.8,24.9,27.29,SSW,203,0.0,0.0,64,0.00,,,0.00,WUHU216HW,2013-01-07 13:10:00,
2013-01-07 06:15:00,35.6,24.7,27.29,ESE,113,0.0,0.0,64,0.00,,,0.00,WUHU216HW,2013-01-07 13:15:00,
2013-01-07 06:20:00,35.6,24.7,27.29,ESE,113,0.0,0.0,64,0.00,,,0.00,WUHU216HW,2013-01-07 13:20:00,
2013-01-07 06:25:00,35.3,24.3,27.29,ESE,113,0.0,0.0,64,0.00,,,0.00,WUHU216HW,2013-01-07 13:25:00,
2013-01-07 06:30:00,34.9,24.3,27.29,ENE,68,0.0,0.0,65,0.00,,,0.00,WUHU216HW,2013-01-07 13:30:00,
2013-01-07 06:35:00,34.7,24.1,27.29,NE,45,0.0,0.0,65,0.00,,,0.00,WUHU216HW,2013-01-07 13:35:00,
2013-01-07 06:40:00,34.7,24.1,27.29,NNW,338,0.0,0.0,65,0.00,,,0.00,WUHU216HW,2013-01-07 13:40:00,
2013-01-07 06:45:00,34.6,23.9,27.29,North,0,0.0,0.0,65,0.00,,,0.00,WUHU216HW,2013-01-07 13:45:00,
2013-01-07 06:50:00,34.6,24.3,27.29,NNW,338,0.0,0.0,66,0.00,,,0.00,WUHU216HW,2013-01-07 13:50:00,
2013-01-07 06:55:00,34.4,24.1,27.29,NNW,338,0.0,0.0,66,0.00,,,0.00,WUHU216HW,2013-01-07 13:55:00,
2013-01-07 07:00:00,34.4,24.1,27.29,NNW,338,0.0,0.0,66,0.00,,,0.00,WUHU216HW,2013-01-07 14:00:00,
2013-01-07 07:05:00,34.4,24.1,27.30,NNW,338,0.0,0.0,66,0.00,,,0.00,WUHU216HW,2013-01-07 14:05:00,
2013-01-07 07:10:00,34.2,23.9,27.29,NNW,338,0.0,0.0,66,0.00,,,0.00,WUHU216HW,2013-01-07 14:10:00,
2013-01-07 07:15:00,34.2,23.9,27.30,NE,45,0.0,0.0,66,0.00,,,0.00,WUHU216HW,2013-01-07 14:15:00,
2013-01-07 07:20:00,34.2,23.9,27.29,NE,45,0.0,0.0,66,0.00,,,0.00,WUHU216HW,2013-01-07 14:20:00,
2013-01-07 07:25:00,34.0,24.1,27.30,NE,45,0.0,0.2,67,0.00,,,0.00,WUHU216HW,2013-01-07 14:25:00,
2013-01-07 07:30:00,33.8,23.9,27.30,NE,45,0.0,0.2,67,0.00,,,0.00,WUHU216HW,2013-01-07 14:30:00,
2013-01-07 07:35:00,33.8,23.9,27.30,ESE,113,0.0,0.0,67,0.00,,,0.00,WUHU216HW,2013-01-07 14:35:00,
2013-01-07 07:40:00,33.8,23.9,27.30,ENE,68,0.0,0.0,67,0.00,,,0.00,WUHU216HW,2013-01-07 14:40:00,
2013-01-07 07:45:00,33.7,23.8,27.30,NNE,23,0.0,0.0,67,0.00,,,0.00,WUHU216HW,2013-01-07 14:45:00,
2013-01-07 07:50:00,33.7,23.8,27.30,NE,45,0.0,0.2,67,0.00,,,0.00,WUHU216HW,2013-01-07 14:50:00,
2013-01-07 07:55:00,33.5,23.9,27.30,ENE,68,0.0,0.2,68,0.00,,,0.00,WUHU216HW,2013-01-07 14:55:00,
2013-01-07 08:00:00,33.5,24.3,27.30,ENE,68,0.0,0.0,69,0.00,,,0.00,WUHU216HW,2013-01-07 15:00:00,
2013-01-07 08:05:00,33.8,24.7,27.30,ENE,68,0.0,0.0,69,0.00,,,0.00,WUHU216HW,2013-01-07 15:05:00,
2013-01-07 08:10:00,34.2,25.0,27.30,ENE,68,0.0,0.0,69,0.00,,,0.00,WUHU216HW,2013-01-07 15:10:00,
2013-01-07 08:15:00,34.6,25.7,27.30,ESE,113,0.0,0.4,70,0.00,,,0.00,WUHU216HW,2013-01-07 15:15:00,
2013-01-07 08:20:00,34.9,26.1,27.30,NE,45,0.0,0.4,70,0.00,,,0.00,WUHU216HW,2013-01-07 15:20:00,
2013-01-07 08:25:00,35.3,26.5,27.31,NE,45,0.0,0.0,70,0.00,,,0.00,WUHU216HW,2013-01-07 15:25:00,
2013-01-07 08:30:00,35.6,26.8,27.31,NW,315,0.0,0.0,70,0.00,,,0.00,WUHU216HW,2013-01-07 15:30:00,
2013-01-07 08:35:00,36.2,27.0,27.31,NW,315,0.0,0.0,69,0.00,,,0.00,WUHU216HW,2013-01-07 15:35:00,
2013-01-07 08:40:00,36.7,27.6,27.31,NW,315,0.0,0.0,69,0.00,,,0.00,WUHU216HW,2013-01-07 15:40:00,
2013-01-07 08:45:00,37.3,28.1,27.31,NW,315,0.0,0.0,69,0.00,,,0.00,WUHU216HW,2013-01-07 15:45:00,
2013-01-07 08:50:00,37.8,28.2,27.31,NW,315,0.0,0.0,68,0.00,,,0.00,WUHU216HW,2013-01-07 15:50:00,
2013-01-07 08:55:00,38.5,28.4,27.31,NW,315,0.0,0.0,67,0.00,,,0.00,WUHU216HW,2013-01-07 15:55:00,
2013-01-07 09:00:00,38.9,28.5,27.31,SW,225,0.0,0.0,66,0.00,,,0.00,WUHU216HW,2013-01-07 16:00:00,
2013-01-07 09:05:00,39.4,28.5,27.31,SE,135,0.0,0.0,65,0.00,,,0.00,WUHU216HW,2013-01-07 16:05:00,
2013-01-07 09:10:00,40.0,28.4,27.31,WSW,248,0.7,0.7,63,0.00,,,0.00,WUHU216HW,2013-01-07 16:10:00,
2013-01-07 09:15:00,40.7,29.1,27.31,SW,225,0.4,1.3,63,0.00,,,0.00,WUHU216HW,2013-01-07 16:15:00,
2013-01-07 09:20:00,41.0,29.4,27.31,WSW,248,0.7,1.3,63,0.00,,,0.00,WUHU216HW,2013-01-07 16:20:00,
2013-01-07 09:25:00,41.6,29.5,27.31,WSW,248,0.4,1.1,62,0.00,,,0.00,WUHU216HW,2013-01-07 16:25:00,
2013-01-07 09:30:00,42.1,29.3,27.31,WSW,248,1.1,1.1,60,0.00,,,0.00,WUHU216HW,2013-01-07 16:30:00,
2013-01-07 09:35:00,42.5,28.7,27.31,WSW,248,1.3,1.8,58,0.00,,,0.00,WUHU216HW,2013-01-07 16:35:00,
2013-01-07 09:40:00,42.8,29.0,27.31,SSW,203,0.9,1.8,58,0.00,,,0.00,WUHU216HW,2013-01-07 16:40:00,
2013-01-07 09:45:00,43.4,29.1,27.31,SW,225,1.6,1.8,57,0.00,,,0.00,WUHU216HW,2013-01-07 16:45:00,
2013-01-07 09:50:00,43.7,29.0,27.31,West,270,0.7,1.8,56,0.00,,,0.00,WUHU216HW,2013-01-07 16:50:00,
2013-01-07 09:55:00,44.3,29.1,27.31,SW,225,0.4,2.2,55,0.00,,,0.00,WUHU216HW,2013-01-07 16:55:00,
2013-01-07 10:00:00,44.5,29.3,27.31,West,270,0.2,2.2,55,0.00,,,0.00,WUHU216HW,2013-01-07 17:00:00,
2013-01-07 10:05:00,44.8,29.6,27.31,SSW,203,0.9,1.8,55,0.00,,,0.00,WUHU216HW,2013-01-07 17:05:00,
2013-01-07 10:10:00,45.0,29.8,27.31,South,180,0.7,1.8,55,0.00,,,0.00,WUHU216HW,2013-01-07 17:10:00,
2013-01-07 10:15:00,45.4,29.6,27.31,SW,225,0.4,2.5,54,0.00,,,0.00,WUHU216HW,2013-01-07 17:15:00,
2013-01-07 10:20:00,45.7,30.0,27.31,SW,225,0.9,2.5,54,0.00,,,0.00,WUHU216HW,2013-01-07 17:20:00,
2013-01-07 10:25:00,46.1,29.3,27.31,SW,225,1.3,2.5,52,0.00,,,0.00,WUHU216HW,2013-01-07 17:25:00,
2013-01-07 10:30:00,46.6,29.4,27.31,SW,225,1.6,2.7,51,0.00,,,0.00,WUHU216HW,2013-01-07 17:30:00,
2013-01-07 10:35:00,47.0,29.7,27.31,SW,225,1.3,3.1,51,0.00,,,0.00,WUHU216HW,2013-01-07 17:35:00,
2013-01-07 10:40:00,47.2,29.9,27.30,NNW,338,0.2,3.1,51,0.00,,,0.00,WUHU216HW,2013-01-07 17:40:00,
2013-01-07 10:45:00,47.5,29.8,27.30,SSE,158,1.8,2.0,50,0.00,,,0.00,WUHU216HW,2013-01-07 17:45:00,
2013-01-07 10:50:00,47.9,30.1,27.30,SE,135,0.7,2.2,50,0.00,,,0.00,WUHU216HW,2013-01-07 17:50:00,
2013-01-07 10:55:00,48.4,30.6,27.30,South,180,0.4,2.2,50,0.00,,,0.00,WUHU216HW,2013-01-07 17:55:00,
2013-01-07 11:00:00,48.6,30.3,27.30,ESE,113,0.9,1.8,49,0.00,,,0.00,WUHU216HW,2013-01-07 18:00:00,
2013-01-07 11:05:00,48.8,29.9,27.30,SSW,203,1.8,2.2,48,0.00,,,0.00,WUHU216HW,2013-01-07 18:05:00,
2013-01-07 11:10:00,49.1,30.3,27.29,SSE,158,1.1,2.2,48,0.00,,,0.00,WUHU216HW,2013-01-07 18:10:00,
2013-01-07 11:15:00,49.5,30.1,27.29,SE,135,1.1,2.2,47,0.00,,,0.00,WUHU216HW,2013-01-07 18:15:00,
2013-01-07 11:20:00,49.7,30.3,27.29,ENE,68,0.2,1.8,47,0.00,,,0.00,WUHU216HW,2013-01-07 18:20:00,
2013-01-07 11:25:00,50.0,30.0,27.28,SW,225,1.6,2.5,46,0.00,,,0.00,WUHU216HW,2013-01-07 18:25:00,
2013-01-07 11:30:00,50.2,29.6,27.28,West,270,0.9,2.5,45,0.00,,,0.00,WUHU216HW,2013-01-07 18:30:00,
2013-01-07 11:35:00,50.6,29.9,27.28,WSW,248,1.6,2.5,45,0.00,,,0.00,WUHU216HW,2013-01-07 18:35:00,
2013-01-07 11:40:00,50.8,30.1,27.28,SE,135,1.3,2.5,45,0.00,,,0.00,WUHU216HW,2013-01-07 18:40:00,
2013-01-07 11:45:00,51.1,30.4,27.28,SSW,203,1.6,4.0,45,0.00,,,0.00,WUHU216HW,2013-01-07 18:45:00,
2013-01-07 11:50:00,51.3,29.4,27.27,West,270,1.1,4.0,43,0.00,,,0.00,WUHU216HW,2013-01-07 18:50:00,
2013-01-07 11:55:00,51.5,30.2,27.27,WSW,248,1.6,2.7,44,0.00,,,0.00,WUHU216HW,2013-01-07 18:55:00,
2013-01-07 12:00:00,51.8,30.5,27.27,WSW,248,0.2,3.6,44,0.00,,,0.00,WUHU216HW,2013-01-07 19:00:00,
2013-01-07 12:05:00,52.0,30.1,27.27,SW,225,1.8,3.6,43,0.00,,,0.00,WUHU216HW,2013-01-07 19:05:00,
2013-01-07 12:10:00,52.4,30.4,27.26,SSE,158,0.9,3.4,43,0.00,,,0.00,WUHU216HW,2013-01-07 19:10:00,
2013-01-07 12:15:00,52.6,30.6,27.26,SE,135,1.6,3.1,43,0.00,,,0.00,WUHU216HW,2013-01-07 19:15:00,
2013-01-07 12:20:00,52.7,30.8,27.26,SW,225,1.8,3.1,43,0.00,,,0.00,WUHU216HW,2013-01-07 19:20:00,
2013-01-07 12:25:00,52.9,30.9,27.26,SW,225,1.8,3.4,43,0.00,,,0.00,WUHU216HW,2013-01-07 19:25:00,
2013-01-07 12:30:00,53.3,30.2,27.25,SSW,203,2.5,3.4,41,0.00,,,0.00,WUHU216HW,2013-01-07 19:30:00,
2013-01-07 12:35:00,53.3,30.2,27.25,West,270,2.5,4.7,41,0.00,,,0.00,WUHU216HW,2013-01-07 19:35:00,
2013-01-07 12:40:00,53.6,30.4,27.25,WNW,293,0.7,4.7,41,0.00,,,0.00,WUHU216HW,2013-01-07 19:40:00,
2013-01-07 12:45:00,53.6,30.4,27.24,SW,225,1.8,2.9,41,0.00,,,0.00,WUHU216HW,2013-01-07 19:45:00,
2013-01-07 12:50:00,54.0,30.8,27.24,WSW,248,0.4,2.9,41,0.00,,,0.00,WUHU216HW,2013-01-07 19:50:00,
2013-01-07 12:55:00,54.4,31.1,27.24,SW,225,3.1,3.1,41,0.00,,,0.00,WUHU216HW,2013-01-07 19:55:00,
2013-01-07 13:00:00,54.5,30.7,27.24,SW,225,2.7,4.5,40,0.00,,,0.00,WUHU216HW,2013-01-07 20:00:00,
2013-01-07 13:05:00,54.7,31.4,27.23,SSE,158,1.3,4.5,41,0.00,,,0.00,WUHU216HW,2013-01-07 20:05:00,
2013-01-07 13:10:00,55.3,31.3,27.23,WSW,248,1.8,3.4,40,0.00,,,0.00,WUHU216HW,2013-01-07 20:10:00,
2013-01-07 13:15:00,55.4,31.5,27.23,SE,135,1.3,3.6,40,0.00,,,0.00,WUHU216HW,2013-01-07 20:15:00,
2013-01-07 13:19:00,55.4,30.8,27.23,SSW,203,0.4,3.6,39,0.00,,,0.00,WUHU216HW,2013-01-07 20:19:00,
2013-01-07 13:24:00,55.8,29.7,27.23,WNW,293,1.8,3.4,37,0.00,,,0.00,WUHU216HW,2013-01-07 20:24:00,
2013-01-07 13:29:00,55.8,30.4,27.23,WSW,248,0.4,2.0,38,0.00,,,0.00,WUHU216HW,2013-01-07 20:29:00,
2013-01-07 13:34:00,55.8,29.7,27.23,SW,225,2.5,2.9,37,0.00,,,0.00,WUHU216HW,2013-01-07 20:34:00,
2013-01-07 13:39:00,55.8,29.7,27.22,WNW,293,1.1,2.9,37,0.00,,,0.00,WUHU216HW,2013-01-07 20:39:00,
2013-01-07 13:44:00,56.2,30.1,27.22,West,270,0.9,2.7,37,0.00,,,0.00,WUHU216HW,2013-01-07 20:44:00,
2013-01-07 13:49:00,56.5,30.3,27.22,WSW,248,2.0,3.4,37,0.00,,,0.00,WUHU216HW,2013-01-07 20:49:00,
2013-01-07 13:54:00,56.5,30.3,27.22,WSW,248,0.7,4.3,37,0.00,,,0.00,WUHU216HW,2013-01-07 20:54:00,
2013-01-07 13:59:00,56.9,30.7,27.22,WSW,248,1.8,4.7,37,0.00,,,0.00,WUHU216HW,2013-01-07 20:59:00,
2013-01-07 14:04:00,56.9,30.7,27.22,South,180,1.6,4.7,37,0.00,,,0.00,WUHU216HW,2013-01-07 21:04:00,
2013-01-07 14:09:00,56.9,30.7,27.22,SW,225,1.1,3.4,37,0.00,,,0.00,WUHU216HW,2013-01-07 21:09:00,
2013-01-07 14:14:00,57.1,30.2,27.21,WSW,248,2.9,4.3,36,0.00,,,0.00,WUHU216HW,2013-01-07 21:14:00,
2013-01-07 14:19:00,57.1,30.9,27.21,WSW,248,1.6,4.3,37,0.00,,,0.00,WUHU216HW,2013-01-07 21:19:00,
2013-01-07 14:24:00,57.1,30.2,27.21,WSW,248,4.5,4.5,36,0.00,,,0.00,WUHU216HW,2013-01-07 21:24:00,
2013-01-07 14:29:00,57.1,30.2,27.21,West,270,2.2,4.5,36,0.00,,,0.00,WUHU216HW,2013-01-07 21:29:00,
2013-01-07 14:34:00,57.1,30.2,27.21,West,270,0.4,4.5,36,0.00,,,0.00,WUHU216HW,2013-01-07 21:34:00,
2013-01-07 14:39:00,57.1,30.2,27.21,WSW,248,2.0,3.1,36,0.00,,,0.00,WUHU216HW,2013-01-07 21:39:00,
2013-01-07 14:44:00,56.9,30.0,27.20,SW,225,2.0,4.0,36,0.00,,,0.00,WUHU216HW,2013-01-07 21:44:00,
2013-01-07 14:49:00,56.9,30.0,27.20,SW,225,3.4,4.0,36,0.00,,,0.00,WUHU216HW,2013-01-07 21:49:00,
2013-01-07 14:54:00,56.9,29.3,27.20,WSW,248,1.6,5.1,35,0.00,,,0.00,WUHU216HW,2013-01-07 21:54:00,
2013-01-07 14:59:00,56.7,29.8,27.20,SW,225,1.1,5.1,36,0.00,,,0.00,WUHU216HW,2013-01-07 21:59:00,
2013-01-07 15:04:00,56.5,29.7,27.20,West,270,1.8,3.4,36,0.00,,,0.00,WUHU216HW,2013-01-07 22:04:00,
2013-01-07 15:09:00,56.5,29.7,27.20,SW,225,2.5,3.4,36,0.00,,,0.00,WUHU216HW,2013-01-07 22:09:00,
2013-01-07 15:14:00,56.9,30.0,27.20,West,270,1.8,2.9,36,0.00,,,0.00,WUHU216HW,2013-01-07 22:14:00,
2013-01-07 15:19:00,56.9,30.0,27.21,West,270,1.6,2.5,36,0.00,,,0.00,WUHU216HW,2013-01-07 22:19:00,
2013-01-07 15:24:00,56.9,30.0,27.20,SW,225,3.4,3.8,36,0.00,,,0.00,WUHU216HW,2013-01-07 22:24:00,
2013-01-07 15:29:00,57.1,30.2,27.21,SSW,203,6.0,6.0,36,0.00,,,0.00,WUHU216HW,2013-01-07 22:29:00,
2013-01-07 15:34:00,57.1,30.2,27.21,WSW,248,1.8,6.0,36,0.00,,,0.00,WUHU216HW,2013-01-07 22:34:00,
2013-01-07 15:39:00,57.1,30.9,27.21,WSW,248,1.1,6.0,37,0.00,,,0.00,WUHU216HW,2013-01-07 22:39:00,
2013-01-07 15:44:00,57.2,31.1,27.21,WSW,248,3.4,4.7,37,0.00,,,0.00,WUHU216HW,2013-01-07 22:44:00,
2013-01-07 15:49:00,57.2,31.1,27.21,West,270,1.6,4.7,37,0.00,,,0.00,WUHU216HW,2013-01-07 22:49:00,
2013-01-07 15:54:00,57.2,31.1,27.22,West,270,0.4,3.6,37,0.00,,,0.00,WUHU216HW,2013-01-07 22:54:00,
2013-01-07 15:59:00,57.2,31.1,27.22,WSW,248,3.6,3.6,37,0.00,,,0.00,WUHU216HW,2013-01-07 22:59:00,
2013-01-07 16:04:00,57.1,30.9,27.22,SW,225,1.1,3.6,37,0.00,,,0.00,WUHU216HW,2013-01-07 23:04:00,
2013-01-07 16:09:00,56.9,30.7,27.22,SW,225,1.8,3.6,37,0.00,,,0.00,WUHU216HW,2013-01-07 23:09:00,
2013-01-07 16:14:00,56.7,31.2,27.22,WSW,248,2.0,4.0,38,0.00,,,0.00,WUHU216HW,2013-01-07 23:14:00,
2013-01-07 16:19:00,56.5,31.1,27.22,WSW,248,1.8,4.0,38,0.00,,,0.00,WUHU216HW,2013-01-07 23:19:00,
2013-01-07 16:24:00,56.3,30.9,27.22,SW,225,1.8,4.0,38,0.00,,,0.00,WUHU216HW,2013-01-07 23:24:00,
2013-01-07 16:29:00,56.0,30.6,27.22,SW,225,2.0,2.7,38,0.00,,,0.00,WUHU216HW,2013-01-07 23:29:00,
2013-01-07 16:34:00,55.8,30.4,27.22,SW,225,1.1,3.4,38,0.00,,,0.00,WUHU216HW,2013-01-07 23:34:00,
2013-01-07 16:39:00,55.8,31.2,27.22,NW,315,0.4,3.4,39,0.00,,,0.00,WUHU216HW,2013-01-07 23:39:00,
2013-01-07 16:44:00,55.6,31.0,27.22,WSW,248,1.8,2.7,39,0.00,,,0.00,WUHU216HW,2013-01-07 23:44:00,
2013-01-07 16:49:00,55.6,31.0,27.22,SW,225,1.1,2.2,39,0.00,,,0.00,WUHU216HW,2013-01-07 23:49:00,
2013-01-07 16:54:00,55.4,30.8,27.22,West,270,1.8,3.1,39,0.00,,,0.00,WUHU216HW,2013-01-07 23:54:00,
2013-01-07 16:59:00,55.1,30.5,27.22,WSW,248,0.0,3.1,39,0.00,,,0.00,WUHU216HW,2013-01-07 23:59:00,
2013-01-07 17:04:00,54.9,30.3,27.22,SSW,203,1.1,2.7,39,0.00,,,0.00,WUHU216HW,2013-01-08 00:04:00,
2013-01-07 17:09:00,54.7,30.2,27.23,WNW,293,0.0,2.7,39,0.00,,,0.00,WUHU216HW,2013-01-08 00:09:00,
2013-01-07 17:14:00,54.5,30.7,27.23,West,270,0.2,1.1,40,0.00,,,0.00,WUHU216HW,2013-01-08 00:14:00,
2013-01-07 17:19:00,54.4,30.5,27.23,SSW,203,1.1,1.6,40,0.00,,,0.00,WUHU216HW,2013-01-08 00:19:00,
2013-01-07 17:24:00,54.0,30.3,27.23,SW,225,1.1,2.2,40,0.00,,,0.00,WUHU216HW,2013-01-08 00:24:00,
2013-01-07 17:29:00,53.6,29.9,27.24,WSW,248,0.0,2.2,40,0.00,,,0.00,WUHU216HW,2013-01-08 00:29:00,
2013-01-07 17:34:00,53.6,30.4,27.24,ESE,113,0.0,1.1,41,0.00,,,0.00,WUHU216HW,2013-01-08 00:34:00,
2013-01-07 17:39:00,53.5,30.2,27.24,SE,135,0.0,0.0,41,0.00,,,0.00,WUHU216HW,2013-01-08 00:39:00,
2013-01-07 17:44:00,53.3,30.2,27.24,SE,135,0.0,0.0,41,0.00,,,0.00,WUHU216HW,2013-01-08 00:44:00,
2013-01-07 17:49:00,52.9,29.8,27.24,East,90,0.0,0.0,41,0.00,,,0.00,WUHU216HW,2013-01-08 00:49:00,
2013-01-07 17:54:00,52.6,30.1,27.24,South,180,0.4,0.4,42,0.00,,,0.00,WUHU216HW,2013-01-08 00:54:00,
2013-01-07 17:59:00,52.2,29.7,27.24,SSE,158,0.0,0.4,42,0.00,,,0.00,WUHU216HW,2013-01-08 00:59:00,
2013-01-07 18:04:00,51.8,30.0,27.25,SE,135,0.0,0.4,43,0.00,,,0.00,WUHU216HW,2013-01-08 01:04:00,
2013-01-07 18:09:00,51.5,29.1,27.25,ESE,113,0.2,0.4,42,0.00,,,0.00,WUHU216HW,2013-01-08 01:09:00,
2013-01-07 18:14:00,50.9,29.2,27.25,NE,45,0.2,0.4,43,0.00,,,0.00,WUHU216HW,2013-01-08 01:14:00,
2013-01-07 18:19:00,50.4,28.6,27.25,NE,45,0.0,1.1,43,0.00,,,0.00,WUHU216HW,2013-01-08 01:19:00,
2013-01-07 18:24:00,50.0,28.9,27.25,ENE,68,0.0,1.1,44,0.00,,,0.00,WUHU216HW,2013-01-08 01:24:00,
2013-01-07 18:29:00,49.5,28.4,27.26,ENE,68,0.0,0.4,44,0.00,,,0.00,WUHU216HW,2013-01-08 01:29:00,
2013-01-07 18:34:00,49.1,28.6,27.26,East,90,0.0,0.4,45,0.00,,,0.00,WUHU216HW,2013-01-08 01:34:00,
2013-01-07 18:39:00,48.8,28.3,27.26,East,90,0.0,0.4,45,0.00,,,0.00,WUHU216HW,2013-01-08 01:39:00,
2013-01-07 18:44:00,48.6,28.6,27.26,ENE,68,0.0,0.9,46,0.00,,,0.00,WUHU216HW,2013-01-08 01:44:00,
2013-01-07 18:49:00,48.2,28.3,27.26,ENE,68,0.4,0.9,46,0.00,,,0.00,WUHU216HW,2013-01-08 01:49:00,
2013-01-07 18:54:00,47.9,27.9,27.26,ENE,68,0.0,0.7,46,0.00,,,0.00,WUHU216HW,2013-01-08 01:54:00,
2013-01-07 18:59:00,47.7,28.4,27.27,ENE,68,1.1,1.1,47,0.00,,,0.00,WUHU216HW,2013-01-08 01:59:00,
2013-01-07 19:04:00,47.5,28.2,27.27,ENE,68,0.2,1.1,47,0.00,,,0.00,WUHU216HW,2013-01-08 02:04:00,
2013-01-07 19:09:00,47.5,28.2,27.27,East,90,0.2,1.1,47,0.00,,,0.00,WUHU216HW,2013-01-08 02:09:00,
2013-01-07 19:14:00,47.7,28.9,27.27,SE,135,0.4,0.7,48,0.00,,,0.00,WUHU216HW,2013-01-08 02:14:00,
2013-01-07 19:19:00,47.9,29.0,27.27,ENE,68,0.2,1.8,48,0.00,,,0.00,WUHU216HW,2013-01-08 02:19:00,
2013-01-07 19:24:00,48.1,29.2,27.27,NE,45,0.4,1.8,48,0.00,,,0.00,WUHU216HW,2013-01-08 02:24:00,
2013-01-07 19:29:00,48.1,28.6,27.27,ENE,68,0.4,1.1,47,0.00,,,0.00,WUHU216HW,2013-01-08 02:29:00,
2013-01-07 19:34:00,48.2,28.8,27.27,ESE,113,0.7,1.1,47,0.00,,,0.00,WUHU216HW,2013-01-08 02:34:00,
2013-01-07 19:39:00,48.2,28.8,27.27,East,90,1.8,1.8,47,0.00,,,0.00,WUHU216HW,2013-01-08 02:39:00,
2013-01-07 19:44:00,48.1,28.6,27.27,SSE,158,0.9,2.0,47,0.00,,,0.00,WUHU216HW,2013-01-08 02:44:00,
2013-01-07 19:49:00,47.9,29.0,27.27,SE,135,1.3,2.0,48,0.00,,,0.00,WUHU216HW,2013-01-08 02:49:00,
2013-01-07 19:54:00,48.1,28.6,27.27,SE,135,1.1,2.0,47,0.00,,,0.00,WUHU216HW,2013-01-08 02:54:00,
2013-01-07 19:59:00,48.1,28.6,27.27,East,90,1.6,1.6,47,0.00,,,0.00,WUHU216HW,2013-01-08 02:59:00,
2013-01-07 20:04:00,48.1,28.6,27.27,ESE,113,0.0,1.6,47,0.00,,,0.00,WUHU216HW,2013-01-08 03:04:00,
2013-01-07 20:08:00,48.1,28.6,27.27,East,90,0.9,0.9,47,0.00,,,0.00,WUHU216HW,2013-01-08 03:08:00,
2013-01-07 20:13:00,47.9,28.4,27.27,SE,135,1.1,1.3,47,0.00,,,0.00,WUHU216HW,2013-01-08 03:13:00,
2013-01-07 20:18:00,47.3,28.5,27.27,NE,45,0.2,1.3,48,0.00,,,0.00,WUHU216HW,2013-01-08 03:18:00,
2013-01-07 20:23:00,47.2,28.4,27.27,NE,45,0.0,0.4,48,0.00,,,0.00,WUHU216HW,2013-01-08 03:23:00,
2013-01-07 20:28:00,47.0,28.2,27.27,NE,45,0.0,0.7,48,0.00,,,0.00,WUHU216HW,2013-01-08 03:28:00,
2013-01-07 20:33:00,46.8,28.1,27.28,NE,45,0.0,0.7,48,0.00,,,0.00,WUHU216HW,2013-01-08 03:33:00,
2013-01-07 20:38:00,46.4,28.3,27.28,NE,45,0.0,0.4,49,0.00,,,0.00,WUHU216HW,2013-01-08 03:38:00,
2013-01-07 20:43:00,46.3,28.1,27.28,SE,135,0.7,1.1,49,0.00,,,0.00,WUHU216HW,2013-01-08 03:43:00,
2013-01-07 20:48:00,46.1,27.9,27.28,ENE,68,0.0,1.1,49,0.00,,,0.00,WUHU216HW,2013-01-08 03:48:00,
2013-01-07 20:53:00,46.1,27.9,27.28,NE,45,0.4,0.4,49,0.00,,,0.00,WUHU216HW,2013-01-08 03:53:00,
2013-01-07 20:58:00,45.9,28.4,27.28,ENE,68,0.7,0.7,50,0.00,,,0.00,WUHU216HW,2013-01-08 03:58:00,
2013-01-07 21:03:00,45.7,28.2,27.28,ESE,113,0.0,0.7,50,0.00,,,0.00,WUHU216HW,2013-01-08 04:03:00,
2013-01-07 21:08:00,45.5,28.0,27.28,NE,45,0.0,0.0,50,0.00,,,0.00,WUHU216HW,2013-01-08 04:08:00,
2013-01-07 21:13:00,45.5,28.0,27.28,NNW,338,0.0,0.0,50,0.00,,,0.00,WUHU216HW,2013-01-08 04:13:00,
2013-01-07 21:18:00,45.5,28.0,27.28,NNW,338,0.0,0.0,50,0.00,,,0.00,WUHU216HW,2013-01-08 04:18:00,
2013-01-07 21:23:00,45.5,28.0,27.29,NE,45,0.0,0.0,50,0.00,,,0.00,WUHU216HW,2013-01-08 04:23:00,
2013-01-07 21:28:00,45.2,27.6,27.29,East,90,0.0,0.0,50,0.00,,,0.00,WUHU216HW,2013-01-08 04:28:00,
2013-01-07 21:33:00,45.0,28.0,27.29,NE,45,0.0,0.2,51,0.00,,,0.00,WUHU216HW,2013-01-08 04:33:00,
2013-01-07 21:38:00,44.8,27.8,27.29,ENE,68,0.0,0.2,51,0.00,,,0.00,WUHU216HW,2013-01-08 04:38:00,
2013-01-07 21:43:00,44.6,27.6,27.30,ESE,113,0.0,0.2,51,0.00,,,0.00,WUHU216HW,2013-01-08 04:43:00,
2013-01-07 21:48:00,44.6,27.6,27.29,NE,45,0.0,0.0,51,0.00,,,0.00,WUHU216HW,2013-01-08 04:48:00,
2013-01-07 21:53:00,44.5,27.5,27.29,SE,135,0.4,0.4,51,0.00,,,0.00,WUHU216HW,2013-01-08 04:53:00,
2013-01-07 21:58:00,44.3,27.7,27.29,ESE,113,0.4,1.1,52,0.00,,,0.00,WUHU216HW,2013-01-08 04:58:00,
2013-01-07 22:00:00,44.3,27.7,27.29,East,90,0.4,1.1,52,0.00,,,0.00,WUHU216HW,2013-01-08 05:00:00,
2013-01-07 22:01:00,44.3,27.7,27.29,South,180,1.1,1.1,52,0.00,,,0.00,WUHU216HW,2013-01-08 05:01:00,
2013-01-07 22:03:00,44.1,27.5,27.29,SSE,158,0.9,1.1,52,0.00,,,0.00,WUHU216HW,2013-01-08 05:03:00,
2013-01-07 22:08:00,44.1,27.5,27.29,NE,45,0.2,1.1,52,0.00,,,0.00,WUHU216HW,2013-01-08 05:08:00,
2013-01-07 22:13:00,43.9,27.5,27.28,East,90,0.4,1.1,52,0.00,,,0.00,WUHU216HW,2013-01-08 05:13:00,
2013-01-07 22:18:00,43.7,27.3,27.28,ESE,113,0.0,0.4,52,0.00,,,0.00,WUHU216HW,2013-01-08 05:18:00,
2013-01-07 22:23:00,43.6,27.1,27.29,East,90,0.0,0.4,52,0.00,,,0.00,WUHU216HW,2013-01-08 05:23:00,
2013-01-07 22:28:00,43.4,27.4,27.29,NE,45,0.4,0.4,53,0.00,,,0.00,WUHU216HW,2013-01-08 05:28:00,
2013-01-07 22:33:00,43.0,27.0,27.30,ENE,68,0.4,1.1,53,0.00,,,0.00,WUHU216HW,2013-01-08 05:33:00,
2013-01-07 22:38:00,43.0,27.0,27.30,NNW,338,0.0,1.6,53,0.00,,,0.00,WUHU216HW,2013-01-08 05:38:00,
2013-01-07 22:43:00,43.0,27.0,27.30,North,0,0.0,1.6,53,0.00,,,0.00,WUHU216HW,2013-01-08 05:43:00,
2013-01-07 22:48:00,43.2,27.2,27.30,ESE,113,0.0,0.0,53,0.00,,,0.00,WUHU216HW,2013-01-08 05:48:00,
2013-01-07 22:53:00,43.2,27.2,27.30,West,270,0.7,0.7,53,0.00,,,0.00,WUHU216HW,2013-01-08 05:53:00,
2013-01-07 22:58:00,42.8,27.3,27.30,WSW,248,0.0,0.7,54,0.00,,,0.00,WUHU216HW,2013-01-08 05:58:00,
2013-01-07 23:03:00,42.8,27.3,27.30,WSW,248,0.0,0.7,54,0.00,,,0.00,WUHU216HW,2013-01-08 06:03:00,
2013-01-07 23:08:00,42.8,27.3,27.30,WNW,293,0.0,0.2,54,0.00,,,0.00,WUHU216HW,2013-01-08 06:08:00,
2013-01-07 23:13:00,42.8,27.3,27.30,NW,315,0.2,0.4,54,0.00,,,0.00,WUHU216HW,2013-01-08 06:13:00,
2013-01-07 23:18:00,42.7,27.1,27.29,WSW,248,0.0,0.4,54,0.00,,,0.00,WUHU216HW,2013-01-08 06:18:00,
2013-01-07 23:23:00,42.5,26.9,27.30,West,270,0.0,0.0,54,0.00,,,0.00,WUHU216HW,2013-01-08 06:23:00,
2013-01-07 23:28:00,42.3,26.7,27.29,NE,45,0.0,0.0,54,0.00,,,0.00,WUHU216HW,2013-01-08 06:28:00,
2013-01-07 23:33:00,42.3,26.7,27.29,NNW,338,0.0,0.0,54,0.00,,,0.00,WUHU216HW,2013-01-08 06:33:00,
2013-01-07 23:38:00,42.3,27.2,27.29,ESE,113,0.0,0.0,55,0.00,,,0.00,WUHU216HW,2013-01-08 06:38:00,
2013-01-07 23:43:00,42.3,27.2,27.29,NE,45,0.0,0.0,55,0.00,,,0.00,WUHU216HW,2013-01-08 06:43:00,
2013-01-07 23:48:00,42.1,27.0,27.29,North,0,0.0,0.0,55,0.00,,,0.00,WUHU216HW,2013-01-08 06:48:00,
2013-01-07 23:53:00,41.9,26.9,27.29,NNE,23,0.0,0.0,55,0.00,,,0.00,WUHU216HW,2013-01-08 06:53:00,
2013-01-07 23:58:00,41.9,27.3,27.29,NW,315,0.0,0.0,56,0.00,,,0.00,WUHU216HW,2013-01-08 06:58:00,